contact:dominique.lefevre@mio.osupytheas.fr, maurice.libes@osupytheas.fr, didier.mallarino@osupytheas.fr
Project:EMSO http://www.emso-fr.org/EMSO-France
Depth: 2436.0 m
Title:EMSO Ligure Ouest : Data MII capteur CSTAR
DateTime,Latitude,Longitude,Instrument_Serial,Reference_Counts,Signal_Counts,Corrected_Signal_raw_counts,Calculated_Beam_c_inverse_meters,Internal_thermistor_counts
DateTime,Latitude,Longitude,Instrument_Serial,Reference_Counts,Signal_Counts,Corrected_Signal_raw_counts,Calculated_Beam_c_inverse_meters,Internal_thermistor_counts
2020-06-28T00:00:04,42.805,6.029,CST-1368DR,6141,8606,15140,0.124,551
2020-06-28T00:03:06,42.805,6.029,CST-1368DR,6141,8606,15140,0.124,551
2020-06-28T00:06:08,42.805,6.029,CST-1368DR,6141,8605,15139,0.124,551
2020-06-28T00:09:09,42.805,6.029,CST-1368DR,6141,8605,15138,0.124,551
2020-06-28T00:12:11,42.805,6.029,CST-1368DR,6141,8605,15138,0.124,551
2020-06-28T00:15:13,42.805,6.029,CST-1368DR,6141,8606,15140,0.124,551
2020-06-28T00:18:14,42.805,6.029,CST-1368DR,6141,8605,15139,0.124,551
2020-06-28T00:21:16,42.805,6.029,CST-1368DR,6141,8605,15138,0.124,551
2020-06-28T00:24:18,42.805,6.029,CST-1368DR,6141,8605,15138,0.124,551
2020-06-28T00:27:19,42.805,6.029,CST-1368DR,6141,8605,15139,0.124,551
2020-06-28T00:30:21,42.805,6.029,CST-1368DR,6141,8605,15138,0.124,551
2020-06-28T00:33:23,42.805,6.029,CST-1368DR,6141,8604,15137,0.125,551
2020-06-28T00:36:24,42.805,6.029,CST-1368DR,6141,8606,15140,0.124,551
2020-06-28T00:39:26,42.805,6.029,CST-1368DR,6141,8605,15138,0.124,551
2020-06-28T00:42:28,42.805,6.029,CST-1368DR,6141,8606,15140,0.124,551
2020-06-28T00:45:30,42.805,6.029,CST-1368DR,6141,8605,15138,0.124,551
2020-06-28T00:48:31,42.805,6.029,CST-1368DR,6141,8605,15139,0.124,551
2020-06-28T00:51:33,42.805,6.029,CST-1368DR,6141,8605,15138,0.124,551
2020-06-28T00:54:35,42.805,6.029,CST-1368DR,6141,8605,15138,0.124,551
2020-06-28T00:57:36,42.805,6.029,CST-1368DR,6141,8605,15138,0.124,551
2020-06-28T01:00:38,42.805,6.029,CST-1368DR,6141,8606,15140,0.124,551
2020-06-28T01:03:40,42.805,6.029,CST-1368DR,6141,8604,15136,0.125,551
2020-06-28T01:06:41,42.805,6.029,CST-1368DR,6141,8605,15138,0.124,551
2020-06-28T01:09:43,42.805,6.029,CST-1368DR,6141,8603,15135,0.125,551
2020-06-28T01:12:45,42.805,6.029,CST-1368DR,6141,8604,15137,0.125,551
2020-06-28T01:15:46,42.805,6.029,CST-1368DR,6141,8605,15138,0.124,551
2020-06-28T01:18:48,42.805,6.029,CST-1368DR,6141,8605,15138,0.124,551
2020-06-28T01:21:50,42.805,6.029,CST-1368DR,6141,8605,15138,0.124,551
2020-06-28T01:24:51,42.805,6.029,CST-1368DR,6141,8606,15140,0.124,550
2020-06-28T01:27:53,42.805,6.029,CST-1368DR,6141,8606,15140,0.124,551
2020-06-28T01:30:55,42.805,6.029,CST-1368DR,6141,8605,15138,0.124,551
2020-06-28T01:33:56,42.805,6.029,CST-1368DR,6141,8605,15138,0.124,551
2020-06-28T01:36:58,42.805,6.029,CST-1368DR,6141,8604,15136,0.125,551
2020-06-28T01:40:00,42.805,6.029,CST-1368DR,6140,8604,15139,0.124,551
2020-06-28T01:43:02,42.805,6.029,CST-1368DR,6140,8606,15142,0.123,551
2020-06-28T01:46:03,42.805,6.029,CST-1368DR,6140,8605,15140,0.124,551
2020-06-28T01:49:05,42.805,6.029,CST-1368DR,6141,8605,15138,0.124,551
2020-06-28T01:52:07,42.805,6.029,CST-1368DR,6141,8605,15138,0.124,551
2020-06-28T01:55:08,42.805,6.029,CST-1368DR,6140,8604,15139,0.124,551
2020-06-28T01:58:10,42.805,6.029,CST-1368DR,6140,8604,15139,0.124,551
2020-06-28T02:01:12,42.805,6.029,CST-1368DR,6140,8605,15141,0.124,551
2020-06-28T02:04:13,42.805,6.029,CST-1368DR,6140,8604,15139,0.124,551
2020-06-28T02:07:15,42.805,6.029,CST-1368DR,6140,8605,15141,0.124,551
2020-06-28T02:10:17,42.805,6.029,CST-1368DR,6140,8604,15139,0.124,551
2020-06-28T02:13:19,42.805,6.029,CST-1368DR,6140,8604,15139,0.124,551
2020-06-28T02:16:20,42.805,6.029,CST-1368DR,6140,8605,15140,0.124,551
2020-06-28T02:19:22,42.805,6.029,CST-1368DR,6140,8604,15139,0.124,551
2020-06-28T02:22:24,42.805,6.029,CST-1368DR,6140,8605,15140,0.124,551
2020-06-28T02:25:26,42.805,6.029,CST-1368DR,6140,8604,15139,0.124,551
2020-06-28T02:28:28,42.805,6.029,CST-1368DR,6140,8604,15139,0.124,551
2020-06-28T02:31:29,42.805,6.029,CST-1368DR,6140,8602,15135,0.125,551
2020-06-28T02:34:31,42.805,6.029,CST-1368DR,6140,8604,15139,0.124,551
2020-06-28T02:37:33,42.805,6.029,CST-1368DR,6140,8604,15139,0.124,551
2020-06-28T02:40:35,42.805,6.029,CST-1368DR,6140,8604,15139,0.124,551
2020-06-28T02:43:36,42.805,6.029,CST-1368DR,6140,8604,15139,0.124,550
2020-06-28T02:46:38,42.805,6.029,CST-1368DR,6140,8604,15139,0.124,551
2020-06-28T02:49:40,42.805,6.029,CST-1368DR,6140,8604,15139,0.124,551
2020-06-28T02:52:41,42.805,6.029,CST-1368DR,6140,8605,15140,0.124,551
2020-06-28T02:55:43,42.805,6.029,CST-1368DR,6140,8603,15138,0.124,551
2020-06-28T02:58:45,42.805,6.029,CST-1368DR,6140,8603,15137,0.125,551
2020-06-28T03:01:46,42.805,6.029,CST-1368DR,6140,8604,15139,0.124,551
2020-06-28T03:04:48,42.805,6.029,CST-1368DR,6140,8605,15140,0.124,551
2020-06-28T03:07:50,42.805,6.029,CST-1368DR,6140,8602,15135,0.125,551
2020-06-28T03:10:51,42.805,6.029,CST-1368DR,6140,8604,15139,0.124,551
2020-06-28T03:13:53,42.805,6.029,CST-1368DR,6140,8605,15140,0.124,551
2020-06-28T03:16:55,42.805,6.029,CST-1368DR,6140,8604,15139,0.124,551
2020-06-28T03:19:56,42.805,6.029,CST-1368DR,6140,8604,15139,0.124,551
2020-06-28T03:22:58,42.805,6.029,CST-1368DR,6140,8604,15139,0.124,551
2020-06-28T03:26:00,42.805,6.029,CST-1368DR,6140,8603,15137,0.125,551
2020-06-28T03:29:02,42.805,6.029,CST-1368DR,6140,8605,15141,0.124,551
2020-06-28T03:32:03,42.805,6.029,CST-1368DR,6140,8604,15139,0.124,551
2020-06-28T03:35:05,42.805,6.029,CST-1368DR,6140,8604,15139,0.124,551
2020-06-28T03:38:07,42.805,6.029,CST-1368DR,6140,8605,15140,0.124,551
2020-06-28T03:41:08,42.805,6.029,CST-1368DR,6140,8605,15140,0.124,551
2020-06-28T03:44:10,42.805,6.029,CST-1368DR,6140,8604,15139,0.124,551
2020-06-28T03:47:12,42.805,6.029,CST-1368DR,6140,8604,15139,0.124,551
2020-06-28T03:50:13,42.805,6.029,CST-1368DR,6140,8605,15140,0.124,551
2020-06-28T03:53:15,42.805,6.029,CST-1368DR,6140,8605,15140,0.124,551
2020-06-28T03:56:17,42.805,6.029,CST-1368DR,6140,8604,15138,0.124,551
2020-06-28T03:59:18,42.805,6.029,CST-1368DR,6140,8604,15138,0.124,551
2020-06-28T04:02:20,42.805,6.029,CST-1368DR,6140,8604,15139,0.124,551
2020-06-28T04:05:22,42.805,6.029,CST-1368DR,6140,8603,15138,0.124,551
2020-06-28T04:08:23,42.805,6.029,CST-1368DR,6140,8603,15137,0.125,551
2020-06-28T04:11:25,42.805,6.029,CST-1368DR,6140,8603,15137,0.125,551
2020-06-28T04:14:27,42.805,6.029,CST-1368DR,6140,8605,15140,0.124,551
2020-06-28T04:17:29,42.805,6.029,CST-1368DR,6140,8604,15139,0.124,551
2020-06-28T04:20:30,42.805,6.029,CST-1368DR,6140,8604,15139,0.124,551
2020-06-28T04:23:32,42.805,6.029,CST-1368DR,6140,8604,15139,0.124,551
2020-06-28T04:26:34,42.805,6.029,CST-1368DR,6140,8604,15139,0.124,551
2020-06-28T04:29:35,42.805,6.029,CST-1368DR,6140,8604,15139,0.124,550
2020-06-28T04:32:37,42.805,6.029,CST-1368DR,6140,8603,15138,0.124,551
2020-06-28T04:35:39,42.805,6.029,CST-1368DR,6140,8600,15132,0.126,551
2020-06-28T04:38:40,42.805,6.029,CST-1368DR,6140,8604,15138,0.124,551
2020-06-28T04:41:42,42.805,6.029,CST-1368DR,6140,8604,15138,0.124,551
2020-06-28T04:44:44,42.805,6.029,CST-1368DR,6140,8604,15139,0.124,551
2020-06-28T04:47:45,42.805,6.029,CST-1368DR,6140,8603,15138,0.124,551
2020-06-28T04:50:47,42.805,6.029,CST-1368DR,6140,8603,15137,0.125,551
2020-06-28T04:53:49,42.805,6.029,CST-1368DR,6140,8603,15138,0.124,551
2020-06-28T04:56:51,42.805,6.029,CST-1368DR,6140,8603,15138,0.124,551
2020-06-28T04:59:52,42.805,6.029,CST-1368DR,6140,8602,15135,0.125,551
2020-06-28T05:02:54,42.805,6.029,CST-1368DR,6140,8604,15139,0.124,551
2020-06-28T05:05:56,42.805,6.029,CST-1368DR,6140,8604,15139,0.124,551
2020-06-28T05:08:57,42.805,6.029,CST-1368DR,6140,8604,15138,0.124,551
2020-06-28T05:11:59,42.805,6.029,CST-1368DR,6140,8603,15136,0.125,550
2020-06-28T05:15:01,42.805,6.029,CST-1368DR,6140,8604,15139,0.124,551
2020-06-28T05:18:02,42.805,6.029,CST-1368DR,6140,8604,15139,0.124,551
2020-06-28T05:21:04,42.805,6.029,CST-1368DR,6140,8604,15138,0.124,551
2020-06-28T05:24:06,42.805,6.029,CST-1368DR,6140,8604,15139,0.124,551
2020-06-28T05:27:07,42.805,6.029,CST-1368DR,6140,8603,15138,0.124,551
2020-06-28T05:30:09,42.805,6.029,CST-1368DR,6140,8604,15139,0.124,551
2020-06-28T05:33:11,42.805,6.029,CST-1368DR,6140,8604,15139,0.124,551
2020-06-28T05:36:12,42.805,6.029,CST-1368DR,6140,8604,15138,0.124,551
2020-06-28T05:39:14,42.805,6.029,CST-1368DR,6140,8604,15138,0.124,551
2020-06-28T05:42:16,42.805,6.029,CST-1368DR,6140,8604,15139,0.124,551
2020-06-28T05:45:17,42.805,6.029,CST-1368DR,6140,8603,15137,0.125,551
2020-06-28T05:48:19,42.805,6.029,CST-1368DR,6140,8604,15139,0.124,551
2020-06-28T05:51:21,42.805,6.029,CST-1368DR,6140,8604,15139,0.124,551
2020-06-28T05:54:22,42.805,6.029,CST-1368DR,6140,8603,15138,0.124,551
2020-06-28T05:57:24,42.805,6.029,CST-1368DR,6140,8604,15139,0.124,551
2020-06-28T06:00:26,42.805,6.029,CST-1368DR,6140,8603,15138,0.124,551
2020-06-28T06:03:28,42.805,6.029,CST-1368DR,6140,8604,15139,0.124,551
2020-06-28T06:06:29,42.805,6.029,CST-1368DR,6140,8603,15137,0.125,551
2020-06-28T06:09:31,42.805,6.029,CST-1368DR,6140,8603,15138,0.124,551
2020-06-28T06:12:33,42.805,6.029,CST-1368DR,6140,8603,15137,0.125,551
2020-06-28T06:15:34,42.805,6.029,CST-1368DR,6140,8603,15136,0.125,551
2020-06-28T06:18:36,42.805,6.029,CST-1368DR,6140,8603,15138,0.124,551
2020-06-28T06:21:38,42.805,6.029,CST-1368DR,6140,8604,15138,0.124,551
2020-06-28T06:24:40,42.805,6.029,CST-1368DR,6140,8603,15138,0.124,551
2020-06-28T06:27:41,42.805,6.029,CST-1368DR,6140,8604,15138,0.124,551
2020-06-28T06:30:43,42.805,6.029,CST-1368DR,6140,8604,15138,0.124,551
2020-06-28T06:33:45,42.805,6.029,CST-1368DR,6140,8604,15139,0.124,551
2020-06-28T06:36:46,42.805,6.029,CST-1368DR,6140,8604,15139,0.124,551
2020-06-28T06:39:48,42.805,6.029,CST-1368DR,6140,8604,15139,0.124,551
2020-06-28T06:42:50,42.805,6.029,CST-1368DR,6140,8604,15138,0.124,551
2020-06-28T06:45:51,42.805,6.029,CST-1368DR,6140,8603,15136,0.125,551
2020-06-28T06:48:53,42.805,6.029,CST-1368DR,6140,8604,15138,0.124,551
2020-06-28T06:51:55,42.805,6.029,CST-1368DR,6140,8603,15136,0.125,551
2020-06-28T06:54:57,42.805,6.029,CST-1368DR,6140,8603,15137,0.125,551
2020-06-28T06:57:58,42.805,6.029,CST-1368DR,6140,8603,15138,0.124,550
2020-06-28T07:01:00,42.805,6.029,CST-1368DR,6140,8604,15138,0.124,551
2020-06-28T07:04:02,42.805,6.029,CST-1368DR,6140,8602,15135,0.125,551
2020-06-28T07:07:03,42.805,6.029,CST-1368DR,6140,8603,15136,0.125,551
2020-06-28T07:10:05,42.805,6.029,CST-1368DR,6140,8603,15136,0.125,551
2020-06-28T07:13:07,42.805,6.029,CST-1368DR,6140,8603,15137,0.125,551
2020-06-28T07:16:08,42.805,6.029,CST-1368DR,6140,8603,15137,0.125,551
2020-06-28T07:19:10,42.805,6.029,CST-1368DR,6140,8603,15136,0.125,551
2020-06-28T07:22:12,42.805,6.029,CST-1368DR,6139,8603,15140,0.124,551
2020-06-28T07:25:14,42.805,6.029,CST-1368DR,6139,8603,15139,0.124,551
2020-06-28T07:28:15,42.805,6.029,CST-1368DR,6139,8603,15139,0.124,551
2020-06-28T07:31:17,42.805,6.029,CST-1368DR,6139,8603,15139,0.124,551
2020-06-28T07:34:19,42.805,6.029,CST-1368DR,6139,8603,15139,0.124,551
2020-06-28T07:37:20,42.805,6.029,CST-1368DR,6139,8603,15140,0.124,551
2020-06-28T07:40:22,42.805,6.029,CST-1368DR,6139,8603,15140,0.124,551
2020-06-28T07:43:24,42.805,6.029,CST-1368DR,6139,8604,15140,0.124,551
2020-06-28T07:46:25,42.805,6.029,CST-1368DR,6139,8603,15140,0.124,551
2020-06-28T07:49:27,42.805,6.029,CST-1368DR,6139,8603,15139,0.124,551
2020-06-28T07:52:29,42.805,6.029,CST-1368DR,6139,8603,15140,0.124,551
2020-06-28T07:55:30,42.805,6.029,CST-1368DR,6139,8603,15140,0.124,551
2020-06-28T07:58:32,42.805,6.029,CST-1368DR,6139,8603,15139,0.124,551
2020-06-28T08:01:34,42.805,6.029,CST-1368DR,6139,8603,15139,0.124,550
2020-06-28T08:04:35,42.805,6.029,CST-1368DR,6139,8603,15139,0.124,551
2020-06-28T08:07:37,42.805,6.029,CST-1368DR,6139,8602,15137,0.125,551
2020-06-28T08:10:39,42.805,6.029,CST-1368DR,6139,8603,15139,0.124,551
2020-06-28T08:13:41,42.805,6.029,CST-1368DR,6139,8602,15137,0.125,551
2020-06-28T08:16:42,42.805,6.029,CST-1368DR,6139,8602,15137,0.125,551
2020-06-28T08:19:44,42.805,6.029,CST-1368DR,6139,8602,15137,0.125,551
2020-06-28T08:22:46,42.805,6.029,CST-1368DR,6139,8603,15139,0.124,551
2020-06-28T08:25:47,42.805,6.029,CST-1368DR,6139,8602,15137,0.125,550
2020-06-28T08:28:49,42.805,6.029,CST-1368DR,6139,8603,15139,0.124,551
2020-06-28T08:31:51,42.805,6.029,CST-1368DR,6139,8602,15137,0.125,551
2020-06-28T08:34:52,42.805,6.029,CST-1368DR,6139,8603,15140,0.124,551
2020-06-28T08:37:54,42.805,6.029,CST-1368DR,6139,8602,15137,0.125,551
2020-06-28T08:40:56,42.805,6.029,CST-1368DR,6139,8603,15140,0.124,551
2020-06-28T08:43:58,42.805,6.029,CST-1368DR,6139,8602,15138,0.124,551
2020-06-28T08:46:59,42.805,6.029,CST-1368DR,6139,8603,15140,0.124,551
2020-06-28T08:50:01,42.805,6.029,CST-1368DR,6139,8603,15140,0.124,551
2020-06-28T08:53:03,42.805,6.029,CST-1368DR,6139,8603,15139,0.124,551
2020-06-28T08:56:04,42.805,6.029,CST-1368DR,6139,8603,15140,0.124,551
2020-06-28T08:59:06,42.805,6.029,CST-1368DR,6139,8602,15137,0.125,551
2020-06-28T09:02:08,42.805,6.029,CST-1368DR,6139,8602,15137,0.125,551
2020-06-28T09:05:09,42.805,6.029,CST-1368DR,6139,8603,15140,0.124,551
2020-06-28T09:08:11,42.805,6.029,CST-1368DR,6139,8603,15139,0.124,551
2020-06-28T09:11:13,42.805,6.029,CST-1368DR,6139,8603,15140,0.124,551
2020-06-28T09:14:15,42.805,6.029,CST-1368DR,6139,8603,15139,0.124,551
2020-06-28T09:17:16,42.805,6.029,CST-1368DR,6139,8601,15136,0.125,551
2020-06-28T09:20:18,42.805,6.029,CST-1368DR,6139,8602,15138,0.124,551
2020-06-28T09:23:20,42.805,6.029,CST-1368DR,6139,8603,15139,0.124,551
2020-06-28T09:26:21,42.805,6.029,CST-1368DR,6139,8603,15139,0.124,551
2020-06-28T09:29:23,42.805,6.029,CST-1368DR,6139,8603,15139,0.124,551
2020-06-28T09:32:25,42.805,6.029,CST-1368DR,6139,8603,15140,0.124,551
2020-06-28T09:35:27,42.805,6.029,CST-1368DR,6139,8602,15138,0.124,551
2020-06-28T09:38:28,42.805,6.029,CST-1368DR,6139,8603,15139,0.124,551
2020-06-28T09:41:30,42.805,6.029,CST-1368DR,6139,8601,15136,0.125,551
2020-06-28T09:44:32,42.805,6.029,CST-1368DR,6139,8602,15137,0.125,551
2020-06-28T09:47:34,42.805,6.029,CST-1368DR,6139,8601,15136,0.125,551
2020-06-28T09:50:35,42.805,6.029,CST-1368DR,6139,8602,15137,0.125,551
2020-06-28T09:53:37,42.805,6.029,CST-1368DR,6139,8601,15136,0.125,551
2020-06-28T09:56:39,42.805,6.029,CST-1368DR,6139,8602,15137,0.125,551
2020-06-28T09:59:40,42.805,6.029,CST-1368DR,6139,8603,15139,0.124,551
2020-06-28T10:02:42,42.805,6.029,CST-1368DR,6139,8602,15137,0.125,551
2020-06-28T10:05:44,42.805,6.029,CST-1368DR,6139,8603,15139,0.124,551
2020-06-28T10:08:46,42.805,6.029,CST-1368DR,6139,8602,15138,0.124,551
2020-06-28T10:11:47,42.805,6.029,CST-1368DR,6139,8601,15136,0.125,550
2020-06-28T10:14:49,42.805,6.029,CST-1368DR,6139,8601,15136,0.125,551
2020-06-28T10:17:51,42.805,6.029,CST-1368DR,6139,8602,15138,0.124,551
2020-06-28T10:20:52,42.805,6.029,CST-1368DR,6139,8602,15138,0.124,551
2020-06-28T10:23:54,42.805,6.029,CST-1368DR,6139,8602,15138,0.124,551
2020-06-28T10:26:56,42.805,6.029,CST-1368DR,6139,8601,15136,0.125,551
2020-06-28T10:29:58,42.805,6.029,CST-1368DR,6139,8601,15136,0.125,551
2020-06-28T10:32:59,42.805,6.029,CST-1368DR,6139,8602,15137,0.125,551
2020-06-28T10:36:01,42.805,6.029,CST-1368DR,6139,8601,15136,0.125,551
2020-06-28T10:39:03,42.805,6.029,CST-1368DR,6139,8602,15137,0.125,551
2020-06-28T10:42:05,42.805,6.029,CST-1368DR,6139,8602,15138,0.124,551
2020-06-28T10:45:06,42.805,6.029,CST-1368DR,6139,8602,15137,0.125,551
2020-06-28T10:48:08,42.805,6.029,CST-1368DR,6139,8602,15137,0.125,551
2020-06-28T10:51:10,42.805,6.029,CST-1368DR,6139,8602,15137,0.125,551
2020-06-28T10:54:11,42.805,6.029,CST-1368DR,6139,8602,15137,0.125,551
2020-06-28T10:57:13,42.805,6.029,CST-1368DR,6139,8601,15136,0.125,551
2020-06-28T11:00:15,42.805,6.029,CST-1368DR,6139,8602,15137,0.125,551
2020-06-28T11:03:16,42.805,6.029,CST-1368DR,6139,8602,15137,0.125,551
2020-06-28T11:06:18,42.805,6.029,CST-1368DR,6139,8601,15136,0.125,551
2020-06-28T11:09:20,42.805,6.029,CST-1368DR,6139,8602,15137,0.125,551
2020-06-28T11:12:22,42.805,6.029,CST-1368DR,6139,8601,15136,0.125,551
2020-06-28T11:15:23,42.805,6.029,CST-1368DR,6139,8601,15136,0.125,551
2020-06-28T11:18:25,42.805,6.029,CST-1368DR,6139,8601,15136,0.125,551
2020-06-28T11:21:27,42.805,6.029,CST-1368DR,6139,8601,15135,0.125,551
2020-06-28T11:24:29,42.805,6.029,CST-1368DR,6139,8602,15137,0.125,551
2020-06-28T11:27:30,42.805,6.029,CST-1368DR,6139,8602,15137,0.125,551
2020-06-28T11:30:32,42.805,6.029,CST-1368DR,6139,8602,15137,0.125,551
2020-06-28T11:33:34,42.805,6.029,CST-1368DR,6139,8602,15137,0.125,551
2020-06-28T11:36:36,42.805,6.029,CST-1368DR,6139,8601,15136,0.125,551
2020-06-28T11:39:37,42.805,6.029,CST-1368DR,6139,8600,15135,0.125,551
2020-06-28T11:42:39,42.805,6.029,CST-1368DR,6139,8602,15137,0.125,551
2020-06-28T11:45:41,42.805,6.029,CST-1368DR,6139,8601,15135,0.125,551
2020-06-28T11:48:42,42.805,6.029,CST-1368DR,6139,8601,15136,0.125,551
2020-06-28T11:51:44,42.805,6.029,CST-1368DR,6139,8601,15135,0.125,551
2020-06-28T11:54:46,42.805,6.029,CST-1368DR,6139,8601,15136,0.125,551
2020-06-28T11:57:47,42.805,6.029,CST-1368DR,6139,8601,15135,0.125,551
2020-06-28T12:00:49,42.805,6.029,CST-1368DR,6139,8602,15137,0.125,551
2020-06-28T12:03:51,42.805,6.029,CST-1368DR,6139,8601,15136,0.125,551
2020-06-28T12:06:52,42.805,6.029,CST-1368DR,6139,8601,15136,0.125,550
2020-06-28T12:09:54,42.805,6.029,CST-1368DR,6139,8602,15137,0.125,551
2020-06-28T12:12:56,42.805,6.029,CST-1368DR,6139,8601,15135,0.125,551
2020-06-28T12:15:58,42.805,6.029,CST-1368DR,6139,8601,15136,0.125,551
2020-06-28T12:18:59,42.805,6.029,CST-1368DR,6139,8601,15136,0.125,551
2020-06-28T12:22:01,42.805,6.029,CST-1368DR,6139,8600,15135,0.125,551
2020-06-28T12:25:03,42.805,6.029,CST-1368DR,6139,8601,15136,0.125,551
2020-06-28T12:28:05,42.805,6.029,CST-1368DR,6139,8600,15134,0.125,551
2020-06-28T12:31:06,42.805,6.029,CST-1368DR,6139,8601,15135,0.125,551
2020-06-28T12:34:08,42.805,6.029,CST-1368DR,6139,8600,15135,0.125,551
2020-06-28T12:37:10,42.805,6.029,CST-1368DR,6139,8601,15136,0.125,551
2020-06-28T12:40:11,42.805,6.029,CST-1368DR,6139,8601,15136,0.125,551
2020-06-28T12:43:13,42.805,6.029,CST-1368DR,6139,8601,15136,0.125,551
2020-06-28T12:46:15,42.805,6.029,CST-1368DR,6139,8601,15136,0.125,551
2020-06-28T12:49:16,42.805,6.029,CST-1368DR,6139,8601,15136,0.125,551
2020-06-28T12:52:18,42.805,6.029,CST-1368DR,6139,8601,15136,0.125,551
2020-06-28T12:55:20,42.805,6.029,CST-1368DR,6138,8600,15137,0.125,551
2020-06-28T12:58:22,42.805,6.029,CST-1368DR,6138,8600,15137,0.125,551
2020-06-28T13:01:24,42.805,6.029,CST-1368DR,6138,8601,15137,0.125,551
2020-06-28T13:04:26,42.805,6.029,CST-1368DR,6138,8599,15135,0.125,551
2020-06-28T13:07:27,42.805,6.029,CST-1368DR,6138,8600,15137,0.125,551
2020-06-28T13:10:29,42.805,6.029,CST-1368DR,6138,8601,15138,0.124,551
2020-06-28T13:13:31,42.805,6.029,CST-1368DR,6138,8601,15138,0.124,551
2020-06-28T13:16:32,42.805,6.029,CST-1368DR,6138,8601,15137,0.125,551
2020-06-28T13:19:34,42.805,6.029,CST-1368DR,6138,8601,15138,0.124,551
2020-06-28T13:22:36,42.805,6.029,CST-1368DR,6138,8601,15139,0.124,551
2020-06-28T13:25:37,42.805,6.029,CST-1368DR,6138,8601,15138,0.124,551
2020-06-28T13:28:39,42.805,6.029,CST-1368DR,6138,8601,15138,0.124,551
2020-06-28T13:31:41,42.805,6.029,CST-1368DR,6138,8600,15137,0.125,551
2020-06-28T13:34:42,42.805,6.029,CST-1368DR,6138,8600,15137,0.125,551
2020-06-28T13:37:44,42.805,6.029,CST-1368DR,6138,8600,15137,0.125,551
2020-06-28T13:40:46,42.805,6.029,CST-1368DR,6138,8601,15138,0.124,551
2020-06-28T13:43:47,42.805,6.029,CST-1368DR,6138,8601,15138,0.124,551
2020-06-28T13:46:49,42.805,6.029,CST-1368DR,6138,8602,15139,0.124,551
2020-06-28T13:49:51,42.805,6.029,CST-1368DR,6138,8601,15137,0.125,551
2020-06-28T13:52:53,42.805,6.029,CST-1368DR,6138,8601,15137,0.125,551
2020-06-28T13:55:54,42.805,6.029,CST-1368DR,6138,8601,15137,0.125,551
2020-06-28T13:58:56,42.805,6.029,CST-1368DR,6138,8601,15137,0.125,551
2020-06-28T14:01:58,42.805,6.029,CST-1368DR,6138,8601,15137,0.125,551
2020-06-28T14:04:59,42.805,6.029,CST-1368DR,6138,8599,15135,0.125,551
2020-06-28T14:08:01,42.805,6.029,CST-1368DR,6138,8600,15137,0.125,551
2020-06-28T14:11:03,42.805,6.029,CST-1368DR,6138,8600,15137,0.125,551
2020-06-28T14:14:04,42.805,6.029,CST-1368DR,6138,8600,15137,0.125,551
2020-06-28T14:17:06,42.805,6.029,CST-1368DR,6138,8601,15137,0.125,551
2020-06-28T14:20:08,42.805,6.029,CST-1368DR,6138,8600,15137,0.125,551
2020-06-28T14:23:09,42.805,6.029,CST-1368DR,6138,8600,15136,0.125,551
2020-06-28T14:26:11,42.805,6.029,CST-1368DR,6138,8600,15136,0.125,551
2020-06-28T14:29:13,42.805,6.029,CST-1368DR,6138,8600,15137,0.125,551
2020-06-28T14:32:14,42.805,6.029,CST-1368DR,6138,8600,15137,0.125,551
2020-06-28T14:35:16,42.805,6.029,CST-1368DR,6138,8600,15136,0.125,551
2020-06-28T14:38:18,42.805,6.029,CST-1368DR,6138,8600,15137,0.125,551
2020-06-28T14:41:19,42.805,6.029,CST-1368DR,6138,8600,15137,0.125,551
2020-06-28T14:44:21,42.805,6.029,CST-1368DR,6138,8600,15137,0.125,551
2020-06-28T14:47:23,42.805,6.029,CST-1368DR,6138,8600,15137,0.125,551
2020-06-28T14:50:25,42.805,6.029,CST-1368DR,6138,8600,15136,0.125,551
2020-06-28T14:53:26,42.805,6.029,CST-1368DR,6138,8600,15136,0.125,551
2020-06-28T14:56:28,42.805,6.029,CST-1368DR,6138,8600,15137,0.125,551
2020-06-28T14:59:30,42.805,6.029,CST-1368DR,6138,8601,15137,0.125,551
2020-06-28T15:02:31,42.805,6.029,CST-1368DR,6138,8599,15135,0.125,551
2020-06-28T15:05:33,42.805,6.029,CST-1368DR,6138,8600,15137,0.125,551
2020-06-28T15:08:35,42.805,6.029,CST-1368DR,6138,8600,15136,0.125,551
2020-06-28T15:11:36,42.805,6.029,CST-1368DR,6138,8599,15135,0.125,551
2020-06-28T15:14:38,42.805,6.029,CST-1368DR,6138,8599,15135,0.125,551
2020-06-28T15:17:40,42.805,6.029,CST-1368DR,6138,8600,15137,0.125,551
2020-06-28T15:20:42,42.805,6.029,CST-1368DR,6138,8600,15137,0.125,551
2020-06-28T15:23:43,42.805,6.029,CST-1368DR,6138,8600,15137,0.125,551
2020-06-28T15:26:45,42.805,6.029,CST-1368DR,6138,8600,15137,0.125,551
2020-06-28T15:29:47,42.805,6.029,CST-1368DR,6138,8600,15136,0.125,551
2020-06-28T15:32:48,42.805,6.029,CST-1368DR,6138,8599,15135,0.125,551
2020-06-28T15:35:50,42.805,6.029,CST-1368DR,6138,8600,15137,0.125,551
2020-06-28T15:38:52,42.805,6.029,CST-1368DR,6138,8600,15136,0.125,551
2020-06-28T15:41:54,42.805,6.029,CST-1368DR,6138,8600,15137,0.125,551
2020-06-28T15:44:55,42.805,6.029,CST-1368DR,6138,8599,15135,0.125,551
2020-06-28T15:47:57,42.805,6.029,CST-1368DR,6138,8599,15135,0.125,551
2020-06-28T15:50:59,42.805,6.029,CST-1368DR,6138,8599,15134,0.125,551
2020-06-28T15:54:00,42.805,6.029,CST-1368DR,6138,8599,15135,0.125,551
2020-06-28T15:57:02,42.805,6.029,CST-1368DR,6138,8598,15133,0.126,551
2020-06-28T16:00:04,42.805,6.029,CST-1368DR,6138,8599,15135,0.125,550
2020-06-28T16:03:05,42.805,6.029,CST-1368DR,6138,8599,15135,0.125,551
2020-06-28T16:06:07,42.805,6.029,CST-1368DR,6138,8599,15134,0.125,551
2020-06-28T16:09:09,42.805,6.029,CST-1368DR,6138,8600,15136,0.125,551
2020-06-28T16:12:10,42.805,6.029,CST-1368DR,6138,8599,15134,0.125,551
2020-06-28T16:15:12,42.805,6.029,CST-1368DR,6138,8599,15135,0.125,551
2020-06-28T16:18:14,42.805,6.029,CST-1368DR,6138,8597,15132,0.126,551
2020-06-28T16:21:16,42.805,6.029,CST-1368DR,6138,8598,15133,0.126,551
2020-06-28T16:24:17,42.805,6.029,CST-1368DR,6138,8599,15135,0.125,551
2020-06-28T16:27:19,42.805,6.029,CST-1368DR,6138,8599,15135,0.125,551
2020-06-28T16:30:21,42.805,6.029,CST-1368DR,6138,8599,15135,0.125,551
2020-06-28T16:33:22,42.805,6.029,CST-1368DR,6138,8599,15135,0.125,551
2020-06-28T16:36:24,42.805,6.029,CST-1368DR,6138,8599,15135,0.125,551
2020-06-28T16:39:26,42.805,6.029,CST-1368DR,6138,8599,15134,0.125,551
2020-06-28T16:42:27,42.805,6.029,CST-1368DR,6138,8598,15132,0.126,551
2020-06-28T16:45:29,42.805,6.029,CST-1368DR,6138,8599,15134,0.125,551
2020-06-28T16:48:31,42.805,6.029,CST-1368DR,6138,8598,15133,0.126,551
2020-06-28T16:51:32,42.805,6.029,CST-1368DR,6138,8599,15135,0.125,551